FW4741 Weather Reports


Display with metric or nautical units.
time (UTC)temp
F
wind
direction
speed
MPH
gust
MPH
rain 1hr
in
rain 24hr
in
rain mn
in
humidity
%
barometer
mb
20260901063602 62 77 2.0 6.0 0.00 0.00 0.00 83 1024.7
20260901063103 62 77 2.0 6.0 0.00 0.00 0.00 83 1024.7
20260901062602 62 77 2.0 6.0 0.00 0.00 0.00 83 1024.7
20260901062103 62 77 2.0 6.0 0.00 0.00 0.00 83 1024.8
20260901061603 62 77 2.0 6.0 0.00 0.00 0.00 83 1024.7
20260901061103 62 77 2.0 6.0 0.00 0.00 0.00 82 1024.7
20260901060603 62 77 2.0 6.0 0.00 0.00 0.00 83 1024.7
20260901055602 62 77 2.0 6.0 0.00 0.00 0.00 83 1024.7
20260901055103 62 77 2.0 6.0 0.00 0.00 0.00 83 1024.7
20260901054602 63 77 2.0 6.0 0.00 0.00 0.00 82 1024.7
20260901054103 63 77 2.0 6.0 0.00 0.00 0.00 81 1024.7
20260901053602 63 77 2.0 6.0 0.00 0.00 0.00 82 1024.7
20260901053103 63 77 2.0 6.0 0.00 0.00 0.00 82 1024.7
20260901051603 63 77 2.0 6.0 0.00 0.00 0.00 82 1024.6
20260901051102 63 77 2.0 6.0 0.00 0.00 0.00 82 1024.6
20260901050603 63 77 2.0 6.0 0.00 0.00 0.00 83 1024.6
20260901045102 63 77 2.0 6.0 0.00 0.00 0.00 83 1024.6
20260901044603 63 77 2.0 6.0 0.00 0.00 0.00 83 1024.7
20260901044103 63 77 2.0 6.0 0.00 0.00 0.00 83 1024.7
20260901043603 63 77 2.0 6.0 0.00 0.00 0.00 83 1024.7
20260901043103 63 77 2.0 6.0 0.00 0.00 0.00 84 1024.7
20260901042603 63 77 2.0 6.0 0.00 0.00 0.00 84 1024.7
20260901042103 64 77 2.0 6.0 0.00 0.00 0.00 83 1024.8
20260901041603 64 77 2.0 6.0 0.00 0.00 0.00 83 1024.8
20260901041103 64 77 2.0 6.0 0.00 0.00 0.00 82 1024.8
20260901040603 64 77 2.0 6.0 0.00 0.00 0.00 82 1024.7
20260901035603 64 77 2.0 6.0 0.00 0.00 0.00 82 1024.6
20260901034102 65 77 2.0 6.0 0.00 0.00 0.00 81 1024.5
20260901033603 65 77 2.0 6.0 0.00 0.00 0.00 80 1024.5
20260901033102 65 77 2.0 6.0 0.00 0.00 0.00 80 1024.3
20260901032603 65 77 2.0 6.0 0.00 0.00 0.00 81 1024.3
20260901032103 65 77 2.0 6.0 0.00 0.00 0.00 82 1024.2
20260901031604 66 77 2.0 6.0 0.00 0.00 0.00 82 1024.2
20260901031103 66 77 2.0 6.0 0.00 0.00 0.00 81 1024.1
20260901030603 66 77 2.0 6.0 0.00 0.00 0.00 81 1024.1
20260901025603 67 77 2.0 6.0 0.00 0.00 0.00 78 1024.1
20260901025103 67 77 2.0 6.0 0.00 0.00 0.00 78 1024.1
20260901024103 67 77 2.0 6.0 0.00 0.00 0.00 78 1024.1
20260901023602 67 77 2.0 6.0 0.00 0.00 0.00 78 1024.0
20260901023103 67 77 2.0 6.0 0.00 0.00 0.00 79 1024.0
20260901022603 67 77 2.0 6.0 0.00 0.00 0.00 82 1023.9
20260901021603 68 77 2.0 6.0 0.00 0.00 0.00 81 1023.8
20260901021103 68 77 2.0 6.0 0.00 0.00 0.00 79 1023.8
20260901020603 68 77 2.0 6.0 0.00 0.00 0.00 78 1023.8
20260901015603 69 77 2.0 6.0 0.00 0.00 0.00 78 1023.7
20260901015103 69 77 2.0 6.0 0.00 0.00 0.00 78 1023.7
20260901014603 69 77 2.0 6.0 0.00 0.00 0.00 78 1023.7
20260901014103 69 77 2.0 6.0 0.00 0.00 0.00 78 1023.7
20260901012102 69 77 2.0 6.0 0.00 0.00 0.00 76 1023.5
20260901011103 69 77 2.0 6.0 0.00 0.00 0.00 76 1023.3
20260901010603 69 77 2.0 6.0 0.00 0.00 0.00 75 1023.3
20260901005603 69 77 2.0 6.0 0.00 0.00 0.00 75 1023.3
20260901005103 70 77 2.0 6.0 0.00 0.00 0.00 74 1023.2
20260901004603 70 77 2.0 6.0 0.00 0.00 0.00 74 1023.2
20260901004103 70 77 2.0 6.0 0.00 0.00 0.00 73 1023.2
20260901002603 71 77 2.0 6.0 0.00 0.00 0.00 71 1023.1
20260901002103 72 77 2.0 6.0 0.00 0.00 0.00 71 1023.1
20260901001603 72 77 2.0 6.0 0.00 0.00 0.00 70 1023.1
20260901001103 72 77 2.0 6.0 0.00 0.00 0.00 70 1023.1
20260901000603 73 77 2.0 6.0 0.00 0.00 0.00 69 1023.1
20260901000103 72 77 2.0 6.0 0.00 0.00 0.00 70 1023.1
20260831235103 72 77 2.0 6.0 0.00 0.00 0.00 70 1023.0
20260831234603 72 77 2.0 6.0 0.00 0.00 0.00 70 1022.9
20260831234103 72 77 2.0 6.0 0.00 0.00 0.00 70 1022.9
20260831233604 73 77 2.0 6.0 0.00 0.00 0.00 71 1022.9
20260831233103 74 77 2.0 6.0 0.00 0.00 0.00 70 1022.9
20260831232604 74 77 2.0 6.0 0.00 0.00 0.00 65 1022.9
20260831232103 74 77 2.0 6.0 0.00 0.00 0.00 65 1022.8
20260831231603 74 77 2.0 6.0 0.00 0.00 0.00 64 1022.7
20260831230602 73 77 2.0 6.0 0.00 0.00 0.00 66 1022.7
20260831225102 73 77 2.0 6.0 0.00 0.00 0.00 67 1022.8
20260831224602 73 77 2.0 6.0 0.00 0.00 0.00 68 1022.8
20260831224103 73 77 2.0 6.0 0.00 0.00 0.00 67 1022.8
20260831223603 73 77 2.0 6.0 0.00 0.00 0.00 66 1022.8
20260831223102 73 77 2.0 6.0 0.00 0.00 0.00 66 1022.8
20260831222602 74 77 2.0 6.0 0.00 0.00 0.00 64 1022.8
20260831221603 75 77 2.0 6.0 0.00 0.00 0.00 64 1022.7
20260831220602 75 77 2.0 6.0 0.00 0.00 0.00 63 1022.7
20260831215602 75 77 2.0 6.0 0.00 0.00 0.00 61 1022.8
20260831214603 76 77 2.0 6.0 0.00 0.00 0.00 60 1022.7
20260831214103 76 77 2.0 6.0 0.00 0.00 0.00 61 1022.7
20260831213604 75 77 2.0 6.0 0.00 0.00 0.00 62 1022.7
20260831213103 74 77 2.0 6.0 0.00 0.00 0.00 64 1022.7
20260831212603 74 77 2.0 6.0 0.00 0.00 0.00 66 1022.8
20260831211604 74 77 2.0 6.0 0.00 0.00 0.00 63 1022.8
20260831211102 74 77 2.0 6.0 0.00 0.00 0.00 63 1022.8
20260831210603 74 77 2.0 6.0 0.00 0.00 0.00 64 1022.9
20260831210103 74 77 2.0 6.0 0.00 0.00 0.00 64 1022.9
20260831205603 75 77 2.0 6.0 0.00 0.00 0.00 63 1022.9
20260831204603 75 77 2.0 6.0 0.00 0.00 0.00 64 1023.0
20260831203603 75 77 2.0 6.0 0.00 0.00 0.00 64 1023.1
20260831203103 75 77 2.0 6.0 0.00 0.00 0.00 63 1023.1
20260831202603 76 77 2.0 6.0 0.00 0.00 0.00 63 1023.1
20260831202103 76 77 2.0 6.0 0.00 0.00 0.00 62 1023.2
20260831201603 76 77 2.0 6.0 0.00 0.00 0.00 61 1023.1
20260831201103 77 77 2.0 6.0 0.00 0.00 0.00 60 1023.2
20260831200602 76 77 2.0 6.0 0.00 0.00 0.00 59 1023.2
20260831195602 76 77 2.0 6.0 0.00 0.00 0.00 60 1023.4
20260831195103 76 77 2.0 6.0 0.00 0.00 0.00 61 1023.4
20260831194603 75 77 2.0 6.0 0.00 0.00 0.00 61 1023.5
20260831194103 75 77 2.0 6.0 0.00 0.00 0.00 61 1023.5
20260831193103 74 77 2.0 6.0 0.00 0.00 0.00 63 1023.7
20260831192603 74 77 2.0 6.0 0.00 0.00 0.00 62 1023.8
20260831192103 75 77 2.0 6.0 0.00 0.00 0.00 62 1023.8
20260831191603 75 77 2.0 6.0 0.00 0.00 0.00 61 1023.8
20260831191102 75 77 2.0 6.0 0.00 0.00 0.00 61 1023.8
20260831190602 76 77 2.0 6.0 0.00 0.00 0.00 60 1023.9
20260831185602 75 77 2.0 6.0 0.00 0.00 0.00 61 1024.0
20260831184603 75 77 2.0 6.0 0.00 0.00 0.00 59 1024.0
20260831184103 75 77 2.0 6.0 0.00 0.00 0.00 59 1023.9
20260831183103 75 77 2.0 6.0 0.00 0.00 0.00 60 1024.1
20260831182602 75 77 2.0 6.0 0.00 0.00 0.00 57 1024.1
20260831182103 75 77 2.0 6.0 0.00 0.00 0.00 61 1024.1
20260831181103 75 77 2.0 6.0 0.00 0.00 0.00 62 1024.1
20260831180603 74 77 2.0 6.0 0.00 0.00 0.00 59 1024.0
20260831175603 74 77 2.0 6.0 0.00 0.00 0.00 61 1024.1
20260831175103 74 77 2.0 6.0 0.00 0.00 0.00 60 1024.1
20260831174602 74 77 2.0 6.0 0.00 0.00 0.00 62 1024.2
20260831174103 74 77 2.0 6.0 0.00 0.00 0.00 61 1024.3
20260831173603 74 77 2.0 6.0 0.00 0.00 0.00 63 1024.3
20260831173103 74 77 2.0 6.0 0.00 0.00 0.00 61 1024.3
20260831172602 74 77 2.0 6.0 0.00 0.00 0.00 61 1024.4
20260831172103 74 77 2.0 6.0 0.00 0.00 0.00 60 1024.5
20260831171602 74 77 2.0 6.0 0.00 0.00 0.00 61 1024.6
20260831171103 74 77 2.0 6.0 0.00 0.00 0.00 57 1024.6
20260831170602 74 77 2.0 6.0 0.00 0.00 0.00 55 1024.6
20260831165103 73 77 2.0 6.0 0.00 0.00 0.00 57 1024.7
20260831164603 73 77 2.0 6.0 0.00 0.00 0.00 56 1024.7
20260831164103 72 77 2.0 6.0 0.00 0.00 0.00 60 1024.8
20260831163602 72 77 2.0 6.0 0.00 0.00 0.00 61 1024.8
20260831162603 71 77 2.0 6.0 0.00 0.00 0.00 67 1024.9
20260831162103 71 77 2.0 6.0 0.00 0.00 0.00 66 1024.9
20260831161603 70 77 2.0 6.0 0.00 0.00 0.00 67 1024.9
20260831161103 69 77 2.0 6.0 0.00 0.00 0.00 68 1024.9
20260831160603 69 77 2.0 6.0 0.00 0.00 0.00 70 1025.0
20260831160103 69 77 2.0 6.0 0.00 0.00 0.00 70 1024.9
20260831155602 68 77 2.0 6.0 0.00 0.00 0.00 71 1025.0
20260831154102 66 77 2.0 6.0 0.00 0.00 0.00 75 1025.0
20260831152602 65 77 2.0 6.0 0.00 0.00 0.00 77 1024.9
20260831152102 65 77 2.0 6.0 0.00 0.00 0.00 77 1024.9
20260831151602 65 77 2.0 6.0 0.00 0.00 0.00 77 1025.0
20260831151103 64 77 2.0 6.0 0.00 0.00 0.00 77 1025.0
20260831145602 63 77 2.0 6.0 0.00 0.00 0.00 82 1025.0
20260831145102 62 77 2.0 6.0 0.00 0.00 0.00 81 1025.0
20260831144603 62 77 2.0 6.0 0.00 0.00 0.00 82 1025.0
20260831144103 62 77 2.0 6.0 0.00 0.00 0.00 82 1025.0
20260831143602 62 77 2.0 6.0 0.00 0.00 0.00 82 1025.0
20260831143103 62 77 2.0 6.0 0.00 0.00 0.00 82 1024.9
20260831142602 62 77 2.0 6.0 0.00 0.00 0.00 83 1024.9
20260831142103 62 77 2.0 6.0 0.00 0.00 0.00 83 1024.9
20260831141603 61 77 2.0 6.0 0.00 0.00 0.00 84 1024.8
20260831140602 60 77 2.0 6.0 0.00 0.00 0.00 85 1024.9
20260831135603 59 77 2.0 6.0 0.00 0.00 0.00 88 1024.8
20260831135103 58 77 2.0 6.0 0.00 0.00 0.00 90 1024.8
20260831134603 58 77 2.0 6.0 0.00 0.00 0.00 92 1024.8
20260831133103 57 77 2.0 6.0 0.00 0.00 0.00 92 1024.8
20260831132602 57 77 2.0 6.0 0.00 0.00 0.00 92 1024.8
20260831132102 57 77 2.0 6.0 0.00 0.00 0.00 92 1024.8
20260831125603 56 77 2.0 6.0 0.00 0.00 0.00 91 1024.7
20260831125102 56 77 2.0 6.0 0.00 0.00 0.00 92 1024.6
20260831124603 56 77 2.0 6.0 0.00 0.00 0.00 92 1024.6
20260831124102 56 77 2.0 6.0 0.00 0.00 0.00 91 1024.7
20260831123602 56 77 2.0 6.0 0.00 0.00 0.00 91 1024.7
20260831123103 56 77 2.0 6.0 0.00 0.00 0.00 91 1024.8
20260831122103 56 77 2.0 6.0 0.00 0.00 0.00 91 1024.8
20260831121603 56 77 2.0 6.0 0.00 0.00 0.00 92 1024.7
20260831120602 56 77 2.0 6.0 0.00 0.00 0.00 93 1024.5
20260831115603 56 77 2.0 6.0 0.00 0.00 0.00 93 1024.4
20260831115103 56 77 2.0 6.0 0.00 0.00 0.00 93 1024.5
20260831114603 56 77 2.0 6.0 0.00 0.00 0.00 93 1024.5
20260831114103 56 77 2.0 6.0 0.00 0.00 0.00 93 1024.5
20260831113103 56 77 2.0 6.0 0.00 0.00 0.00 93 1024.6
20260831112103 56 77 2.0 6.0 0.00 0.00 0.00 94 1024.6
20260831111602 56 77 2.0 6.0 0.00 0.00 0.00 94 1024.6
20260831111102 56 77 2.0 6.0 0.00 0.00 0.00 94 1024.6
20260831110603 55 77 2.0 6.0 0.00 0.00 0.00 94 1024.6
20260831105103 55 77 2.0 6.0 0.00 0.00 0.00 93 1024.6
20260831104603 55 77 2.0 6.0 0.00 0.00 0.00 93 1024.6
20260831104103 55 77 2.0 6.0 0.00 0.00 0.00 93 1024.6
20260831103603 55 77 2.0 6.0 0.00 0.00 0.00 93 1024.5
20260831103103 56 77 2.0 6.0 0.00 0.00 0.00 92 1024.5
20260831102602 56 77 2.0 6.0 0.00 0.00 0.00 92 1024.4
20260831102103 56 77 2.0 6.0 0.00 0.00 0.00 92 1024.4
20260831101103 56 77 2.0 6.0 0.00 0.00 0.00 93 1024.4
20260831100603 56 77 2.0 6.0 0.00 0.00 0.00 93 1024.4
20260831100103 56 77 2.0 6.0 0.00 0.00 0.00 93 1024.4
20260831095603 55 77 2.0 6.0 0.00 0.00 0.00 93 1024.4
20260831095103 55 77 2.0 6.0 0.00 0.00 0.00 93 1024.4
20260831094603 55 77 2.0 6.0 0.00 0.00 0.00 93 1024.3
20260831094103 55 77 2.0 6.0 0.00 0.00 0.00 93 1024.3
20260831093603 55 77 2.0 6.0 0.00 0.00 0.00 93 1024.3
20260831093103 55 77 2.0 6.0 0.00 0.00 0.00 93 1024.3
20260831092603 55 77 2.0 6.0 0.00 0.00 0.00 93 1024.3
20260831092102 56 77 2.0 6.0 0.00 0.00 0.00 93 1024.2
20260831091603 56 77 2.0 6.0 0.00 0.00 0.00 93 1024.3
20260831091103 56 77 2.0 6.0 0.00 0.00 0.00 93 1024.3
20260831090603 56 77 2.0 6.0 0.00 0.00 0.00 93 1024.2
20260831085602 56 77 2.0 6.0 0.00 0.00 0.00 94 1024.1
20260831085103 56 77 2.0 6.0 0.00 0.00 0.00 93 1024.2
20260831084102 56 77 2.0 6.0 0.00 0.00 0.00 93 1024.2
20260831083603 56 77 2.0 6.0 0.00 0.00 0.00 93 1024.2
20260831083103 56 77 2.0 6.0 0.00 0.00 0.00 93 1024.2
20260831082103 56 77 2.0 6.0 0.00 0.00 0.00 93 1024.2
20260831081603 56 77 2.0 6.0 0.00 0.00 0.00 94 1024.2
20260831081102 56 77 2.0 6.0 0.00 0.00 0.00 94 1024.2
20260831080603 56 77 2.0 6.0 0.00 0.00 0.00 93 1024.2
20260831075603 56 77 2.0 6.0 0.00 0.00 0.00 93 1024.3
20260831075103 56 77 2.0 6.0 0.00 0.00 0.00 93 1024.3
20260831074603 56 77 2.0 6.0 0.00 0.00 0.00 93 1024.3
20260831074103 56 77 2.0 6.0 0.00 0.00 0.00 93 1024.3
20260831073603 57 77 2.0 6.0 0.00 0.00 0.00 93 1024.3
20260831072602 57 77 2.0 6.0 0.00 0.00 0.00 92 1024.3
20260831071603 57 77 2.0 6.0 0.00 0.00 0.00 93 1024.3
20260831070603 57 77 2.0 6.0 0.00 0.00 0.00 93 1024.3
20260831065603 57 77 2.0 6.0 0.00 0.00 0.00 93 1024.4
20260831065102 57 77 2.0 6.0 0.00 0.00 0.00 92 1024.4
20260831064603 57 77 2.0 6.0 0.00 0.00 0.00 92 1024.4